Location: Ottawa
(45.4170°N, 75.7000°W)
Time: 00:30:31
(UTC-04:00)

Amateur Radio Satellites - All Passes

Search period start: 23 October 2014 00:00
Search period end: 24 October 2014 00:00
Location: Ottawa, 45.4170°N, 75.7000°W

Satellite Date Start Highest point End Downlink Frequencies (MHz)
Time Altitude Azimuth
MaSat-1 23 Oct 00:32:37 00:36:43 55° 115° (ESE) 00:40:26 437.345 MHz
UOSAT-12 23 Oct 01:02:34 01:06:46 32° 244° (WSW) 01:10:53 437.025 FM, 437.400 FM
RS-15 23 Oct 01:04:20 01:14:50 49° 321° (NW) 01:25:26 29.354 - 29.394 USB, Beacon 29.352 USB
JAS-1B 23 Oct 01:15:08 01:18:53 15° 90° (E) 01:22:54 435.800 - 435.900 CW/SSB
Oscar 16 23 Oct 01:25:06 01:28:05 15° 89° (E) 01:31:04 437.025 USB, Beacon 2401.1428
AO-Echo 23 Oct 01:39:03 01:40:37 11° 86° (E) 01:42:10 ?
MaSat-1 23 Oct 02:10:00 02:12:39 17° 310° (NW) 02:15:08 437.345 MHz
Oscar 19 23 Oct 02:17:33 02:22:28 45° 99° (E) 02:27:20 437.125 CW, 437.150 USB
AO-27 23 Oct 02:30:14 02:34:34 26° 94° (E) 02:38:51 436.795 MHz FM
Oscar 16 23 Oct 03:02:52 03:07:59 72° 287° (WNW) 03:13:05 437.025 USB, Beacon 2401.1428
JAS-1B 23 Oct 03:03:41 03:10:09 85° 105° (ESE) 03:17:52 435.800 - 435.900 CW/SSB
AO-Echo 23 Oct 03:14:49 03:20:09 82° 104° (ESE) 03:25:29 ?
Uribyol 2 23 Oct 03:18:31 03:23:45 71° 103° (ESE) 03:28:55 436.500 FM
RS-15 23 Oct 03:21:37 03:30:37 28° 354° (N) 03:39:48 29.354 - 29.394 USB, Beacon 29.352 USB
ITAMSAT 1 23 Oct 03:23:58 03:29:14 74° 103° (ESE) 03:34:26 435.822 SSB
PCSat 23 Oct 03:26:59 03:29:57 15° 104° (ESE) 03:32:56 145.825 MHz
Gurwin Techsat 1B 23 Oct 03:31:26 03:36:36 48° 99° (E) 03:41:42 435.225 FM
AO-7 23 Oct 03:34:24 03:37:44 13° 85° (E) 03:41:03 29.400 - 29.500 MHz
TMSAT-1 23 Oct 03:44:05 03:49:12 46° 99° (E) 03:54:17 436.925 FM
Oscar 19 23 Oct 03:57:23 04:01:34 26° 297° (WNW) 04:05:45 437.125 CW, 437.150 USB
OPAL 23 Oct 04:02:34 04:06:34 24° 60° (ENE) 04:10:33 ?
AO-27 23 Oct 04:09:17 04:14:16 46° 292° (WNW) 04:19:13 436.795 MHz FM
Sapphire 23 Oct 04:44:32 04:49:50 61° 117° (ESE) 04:55:12 437.095 MHz 1200 baud AX-25 AFSK
Oscar 16 23 Oct 04:44:54 04:46:26 11° 306° (NW) 04:47:58 437.025 USB, Beacon 2401.1428
AO-Echo 23 Oct 04:55:01 04:58:15 17° 302° (WNW) 05:01:30 ?
JAS-1B 23 Oct 04:55:50 05:00:16 20° 302° (WNW) 05:05:09 435.800 - 435.900 CW/SSB
Uosat F 23 Oct 04:58:15 05:02:51 34° 97° (E) 05:07:24 435.120 FM
Uribyol 2 23 Oct 04:59:11 05:02:39 18° 301° (WNW) 05:06:07 436.500 FM
ITAMSAT 1 23 Oct 05:04:45 05:08:08 18° 302° (WNW) 05:11:30 435.822 SSB
PCSat 23 Oct 05:07:12 05:12:37 85° 302° (WNW) 05:18:06 145.825 MHz
Gurwin Techsat 1B 23 Oct 05:11:57 05:16:18 26° 297° (WNW) 05:20:37 435.225 FM
JAS-2 23 Oct 05:14:34 05:20:22 22° 88° (E) 05:26:12 435.800 - 435.900 CW/SSB, 435.910 FM
AO-7 23 Oct 05:23:49 05:32:07 66° 105° (ESE) 05:40:22 29.400 - 29.500 MHz
TMSAT-1 23 Oct 05:24:30 05:28:52 27° 297° (WNW) 05:33:14 436.925 FM
RS-15 23 Oct 05:37:01 05:47:06 38° 29° (NNE) 05:57:28 29.354 - 29.394 USB, Beacon 29.352 USB
OPAL 23 Oct 05:40:05 05:45:07 53° 257° (WSW) 05:50:08 ?
STRAND 1 23 Oct 05:43:53 05:47:40 21° 61° (ENE) 05:51:28 ?
Hamsat 23 Oct 05:53:23 05:56:04 16° 91° (E) 05:58:44 145.90 MHz
Sapphire 23 Oct 06:29:07 06:33:40 27° 317° (NW) 06:38:15 437.095 MHz 1200 baud AX-25 AFSK
Uosat F 23 Oct 06:37:05 06:41:35 33° 294° (WNW) 06:46:03 435.120 FM
PCSat 23 Oct 06:53:01 06:56:52 19° 323° (NW) 07:00:44 145.825 MHz
JAS-2 23 Oct 06:58:23 07:06:07 85° 286° (WNW) 07:13:59 435.800 - 435.900 CW/SSB, 435.910 FM
AO-7 23 Oct 07:17:14 07:24:24 34° 305° (NW) 07:31:35 29.400 - 29.500 MHz
STRAND 1 23 Oct 07:21:23 07:26:26 58° 259° (W) 07:31:32 ?
Hamsat 23 Oct 07:28:14 07:32:17 48° 288° (WNW) 07:36:19 145.90 MHz
RS-15 23 Oct 07:49:46 08:00:57 89° 236° (SW) 08:12:37 29.354 - 29.394 USB, Beacon 29.352 USB
HO-68 23 Oct 08:17:55 08:19:21 11° 83° (E) 08:20:48 435.675 MHz FM
SO-67 23 Oct 08:26:58 08:30:24 65° 285° (WNW) 08:33:49 435.3500 MHz FM
Saudisat 1A 23 Oct 08:28:48 08:33:06 59° 122° (ESE) 08:37:27 436.775 MHz
MaSat-1 23 Oct 08:43:00 08:43:58 11° 46° (NE) 08:44:54 437.345 MHz
JAS-2 23 Oct 08:44:41 08:50:09 22° 305° (NW) 08:55:45 435.800 - 435.900 CW/SSB, 435.910 FM
Oscar 11 23 Oct 09:38:11 09:40:05 13° 89° (E) 09:42:00 145.825 FM, Beacon 2401.500 USB
HO-68 23 Oct 10:01:19 10:08:29 63° 103° (ESE) 10:15:35 435.675 MHz FM
RS-15 23 Oct 10:03:28 10:11:53 26° 258° (WSW) 10:20:35 29.354 - 29.394 USB, Beacon 29.352 USB
Saudisat 1A 23 Oct 10:09:30 10:13:01 23° 321° (NW) 10:16:33 436.775 MHz
MaSat-1 23 Oct 10:17:26 10:19:51 30° 249° (WSW) 10:22:05 437.345 MHz
ZACube-1 23 Oct 10:21:46 10:24:23 16° 90° (E) 10:26:58 437.345 MHz
UKube-1 23 Oct 10:29:17 10:33:31 45° 99° (E) 10:37:42 145.840 MHz, 145.915 MHz
FUNcube-1 23 Oct 11:05:51 11:09:59 45° 98° (E) 11:14:00 145.950 - 145.970 MHz USB
Oscar 11 23 Oct 11:12:26 11:16:44 66° 286° (WNW) 11:20:59 145.825 FM, Beacon 2401.500 USB
Sapphire 23 Oct 11:47:47 11:51:28 18° 35° (NE) 11:55:09 437.095 MHz 1200 baud AX-25 AFSK
HO-68 23 Oct 11:49:41 11:55:44 30° 302° (WNW) 12:01:46 435.675 MHz FM
ZACube-1 23 Oct 11:56:58 12:01:08 51° 288° (WNW) 12:05:12 437.345 MHz
Oscar 19 23 Oct 12:00:57 12:03:08 13° 56° (NE) 12:05:19 437.125 CW, 437.150 USB
JAS-1B 23 Oct 12:05:48 12:08:40 14° 54° (NE) 12:11:29 435.800 - 435.900 CW/SSB
UKube-1 23 Oct 12:06:12 12:09:24 20° 297° (WNW) 12:12:35 145.840 MHz, 145.915 MHz
PCSat 23 Oct 12:10:13 12:14:40 25° 42° (NE) 12:19:06 145.825 MHz
KITSAT 1 23 Oct 12:26:00 12:33:32 45° 112° (ESE) 12:41:04 435.175 FM
FUNcube-1 23 Oct 12:43:01 12:46:03 19° 297° (WNW) 12:49:01 145.950 - 145.970 MHz USB
Oscar 16 23 Oct 12:43:41 12:48:06 29° 65° (ENE) 12:52:30 437.025 USB, Beacon 2401.1428
AO-Echo 23 Oct 12:53:21 12:56:41 19° 60° (ENE) 13:00:06 ?
Uribyol 2 23 Oct 13:01:08 13:04:51 20° 60° (ENE) 13:08:35 436.500 FM
ITAMSAT 1 23 Oct 13:06:36 13:10:25 21° 60° (ENE) 13:14:15 435.822 SSB
Gurwin Techsat 1B 23 Oct 13:17:56 13:20:49 15° 57° (ENE) 13:23:41 435.225 FM
Sapphire 23 Oct 13:30:21 13:35:49 77° 57° (ENE) 13:41:15 437.095 MHz 1200 baud AX-25 AFSK
TMSAT-1 23 Oct 13:30:25 13:33:09 14° 56° (NE) 13:35:53 436.925 FM
Oscar 19 23 Oct 13:36:30 13:41:39 81° 74° (ENE) 13:46:49 437.125 CW, 437.150 USB
SO-50 23 Oct 13:42:48 13:47:12 57° 121° (ESE) 13:51:45 436.795 FM
AO-27 23 Oct 13:50:19 13:55:18 48° 69° (ENE) 14:00:19 436.795 MHz FM
JAS-1B 23 Oct 13:52:34 13:58:34 87° 74° (ENE) 14:04:16 435.800 - 435.900 CW/SSB
PCSat 23 Oct 13:53:10 13:58:34 68° 242° (WSW) 14:03:56 145.825 MHz
ISS 23 Oct 14:00:53 14:04:07 51° 145° (SE) 14:07:23 145.800 FM
Oscar 10/S400 23 Oct 14:15:47 14:32:11 33° 152° (SSE) 14:54:53 145.825 - 145.975 CW/USB, Beacon 145.810 USB
KITSAT 1 23 Oct 14:21:03 14:28:52 51° 313° (NW) 14:36:44 435.175 FM
Oscar 16 23 Oct 14:22:28 14:27:18 40° 262° (W) 14:32:09 437.025 USB, Beacon 2401.1428
AO-Echo 23 Oct 14:30:06 14:34:55 64° 259° (WSW) 14:39:58 ?
AO-7 23 Oct 14:34:47 14:41:21 27° 51° (NE) 14:47:55 29.400 - 29.500 MHz
Uribyol 2 23 Oct 14:38:40 14:43:50 64° 258° (WSW) 14:49:04 436.500 FM
ITAMSAT 1 23 Oct 14:44:20 14:49:28 60° 259° (WSW) 14:54:40 435.822 SSB
Gurwin Techsat 1B 23 Oct 14:54:43 15:00:02 90° 179° (S) 15:05:23 435.225 FM
TMSAT-1 23 Oct 15:06:59 15:12:17 87° 75° (ENE) 15:17:38 436.925 FM
Saudisat 1A 23 Oct 15:14:42 15:17:41 17° 34° (NE) 15:20:38 436.775 MHz
UOSAT-12 23 Oct 15:15:05 15:19:30 46° 119° (ESE) 15:24:01 437.025 FM, 437.400 FM
Sapphire 23 Oct 15:15:12 15:18:35 17° 255° (WSW) 15:21:56 437.095 MHz 1200 baud AX-25 AFSK
Oscar 19 23 Oct 15:19:03 15:21:37 14° 272° (W) 15:24:11 437.125 CW, 437.150 USB
SO-50 23 Oct 15:24:20 15:28:06 25° 321° (NW) 15:31:58 436.795 FM
AO-27 23 Oct 15:30:52 15:35:02 24° 267° (W) 15:39:15 436.795 MHz FM
JAS-2 23 Oct 15:33:19 15:35:17 12° 46° (NE) 15:37:19 435.800 - 435.900 CW/SSB, 435.910 FM
ISS 23 Oct 15:37:46 15:40:55 37° 343° (NNW) 15:44:04 145.800 FM
JAS-1B 23 Oct 15:47:42 15:50:05 12° 272° (W) 15:52:25 435.800 - 435.900 CW/SSB
Uosat F 23 Oct 16:13:29 16:18:25 59° 71° (ENE) 16:23:23 435.120 FM
KITSAT 1 23 Oct 16:20:37 16:26:25 21° 340° (NNW) 16:32:14 435.175 FM
AO-7 23 Oct 16:25:01 16:33:18 82° 252° (WSW) 16:41:39 29.400 - 29.500 MHz
Gurwin Techsat 1B 23 Oct 16:38:33 16:40:44 12° 273° (W) 16:42:56 435.225 FM
Hamsat 23 Oct 16:49:13 16:51:54 17° 63° (ENE) 16:54:34 145.90 MHz
TMSAT-1 23 Oct 16:50:31 16:52:55 13° 273° (W) 16:55:19 436.925 FM
Saudisat 1A 23 Oct 16:53:26 16:57:53 89° 54° (NE) 17:02:18 436.775 MHz
UOSAT-12 23 Oct 16:55:43 16:59:50 30° 319° (NW) 17:04:00 437.025 FM, 437.400 FM
JAS-2 23 Oct 17:12:53 17:18:40 54° 68° (ENE) 17:25:15 435.800 - 435.900 CW/SSB, 435.910 FM
ISS 23 Oct 17:15:15 17:18:11 27° 4° (N) 17:21:06 145.800 FM
OPAL 23 Oct 17:47:59 17:52:26 32° 98° (E) 17:56:49 ?
Uosat F 23 Oct 17:54:08 17:57:36 19° 269° (W) 18:01:04 435.120 FM
KITSAT 1 23 Oct 18:20:14 18:25:25 18° 11° (N) 18:30:36 435.175 FM
AO-7 23 Oct 18:22:09 18:27:19 18° 272° (W) 18:32:31 29.400 - 29.500 MHz
Hamsat 23 Oct 18:23:22 18:27:28 51° 261° (W) 18:31:35 145.90 MHz
Saudisat 1A 23 Oct 18:35:21 18:36:46 11° 252° (WSW) 18:38:10 436.775 MHz
HO-68 23 Oct 18:49:11 18:52:31 14° 46° (NE) 18:55:52 435.675 MHz FM
ISS 23 Oct 18:52:02 18:55:20 56° 23° (NNE) 18:58:38 145.800 FM
JAS-2 23 Oct 18:59:14 19:04:12 27° 270° (W) 19:09:43 435.800 - 435.900 CW/SSB, 435.910 FM
SO-67 23 Oct 19:01:20 19:04:41 53° 74° (ENE) 19:08:03 435.3500 MHz FM
OPAL 23 Oct 19:26:50 19:31:19 34° 296° (WNW) 19:35:45 ?
STRAND 1 23 Oct 19:29:50 19:34:41 40° 98° (E) 19:39:30 ?
KITSAT 1 23 Oct 20:16:14 20:23:36 36° 39° (NE) 20:30:55 435.175 FM
ISS 23 Oct 20:29:01 20:31:52 26° 221° (SW) 20:34:42 145.800 FM
HO-68 23 Oct 20:31:48 20:38:47 59° 67° (ENE) 20:45:48 435.675 MHz FM
SO-50 23 Oct 20:32:22 20:35:54 20° 35° (NE) 20:39:28 436.795 FM
Oscar 11 23 Oct 20:35:32 20:37:55 15° 61° (ENE) 20:40:18 145.825 FM, Beacon 2401.500 USB
STRAND 1 23 Oct 21:09:19 21:13:43 29° 296° (WNW) 21:18:06 ?
ZACube-1 23 Oct 21:20:08 21:23:24 20° 64° (ENE) 21:26:39 437.345 MHz
UKube-1 23 Oct 21:26:38 21:30:52 53° 71° (ENE) 21:35:07 145.840 MHz, 145.915 MHz
UOSAT-12 23 Oct 22:03:16 22:06:19 17° 31° (NNE) 22:09:22 437.025 FM, 437.400 FM
FUNcube-1 23 Oct 22:03:48 22:08:13 49° 72° (ENE) 22:12:36 145.950 - 145.970 MHz USB
Oscar 11 23 Oct 22:09:18 22:13:36 65° 259° (WSW) 22:17:55 145.825 FM, Beacon 2401.500 USB
KITSAT 1 23 Oct 22:11:35 22:19:37 70° 242° (WSW) 22:27:36 435.175 FM
SO-50 23 Oct 22:12:14 22:17:06 88° 235° (SW) 22:22:00 436.795 FM
RS-15 23 Oct 22:16:04 22:26:20 48° 112° (ESE) 22:36:31 29.354 - 29.394 USB, Beacon 29.352 USB
HO-68 23 Oct 22:20:44 22:26:52 30° 266° (W) 22:33:03 435.675 MHz FM
ZACube-1 23 Oct 22:54:59 22:59:28 51° 261° (W) 23:03:54 437.345 MHz
UKube-1 23 Oct 23:04:38 23:07:22 16° 269° (W) 23:10:08 145.840 MHz, 145.915 MHz
FUNcube-1 23 Oct 23:41:37 23:44:50 19° 268° (W) 23:48:04 145.950 - 145.970 MHz USB
UOSAT-12 23 Oct 23:42:33 23:47:18 73° 52° (NE) 23:51:58 437.025 FM, 437.400 FM
SO-50 23 Oct 23:54:54 23:56:57 13° 252° (WSW) 23:59:01 436.795 FM
